DW2770 Weather Reports


Display with metric or nautical units.
time (UTC)temp
F
wind
direction
speed
MPH
gust
MPH
rain 1hr
in
rain 24hr
in
rain mn
in
humidity
%
barometer
mb
20260506164532 68 70 5.0 11.0 0.00 0.00 0.00 50 1010.9
20260506163014 68 108 6.0 9.0 0.00 0.00 0.00 50 1011.2
20260506161522 68 115 7.0 10.0 0.00 0.00 0.00 48 1011.5
20260506160024 68 116 4.0 8.0 0.00 0.00 0.00 50 1011.8
20260506154508 68 105 6.0 9.0 0.00 0.00 0.00 49 1012.0
20260506153014 69 97 5.0 9.0 0.00 0.00 0.00 51 1012.1
20260506144511 68 92 6.0 10.0 0.00 0.00 0.00 58 1012.2
20260506143008 69 107 5.0 9.0 0.00 0.00 0.00 55 1012.2
20260506141508 68 98 4.0 10.0 0.00 0.00 0.00 65 1012.1
20260506140003 68 98 5.0 9.0 0.00 0.00 0.00 64 1012.2
20260506134504 69 88 5.0 9.0 0.00 0.00 0.00 60 1012.1
20260506133006 70 94 4.0 9.0 0.00 0.00 0.00 57 1012.4
20260506131512 70 84 5.0 9.0 0.00 0.00 0.00 51 1012.4
20260506130003 70 105 4.0 9.0 0.00 0.00 0.00 56 1012.6
20260506124505 70 94 5.0 12.0 0.00 0.00 0.00 55 1012.2
20260506123007 69 93 5.0 9.0 0.00 0.00 0.00 57 1012.3
20260506121512 70 98 4.0 10.0 0.00 0.00 0.00 58 1012.4
20260506120033 70 94 4.0 8.0 0.00 0.00 0.00 59 1012.4
20260506114505 70 95 3.0 9.0 0.00 0.00 0.00 55 1012.4
20260506113004 70 94 3.0 9.0 0.00 0.00 0.00 57 1012.4
20260506111508 71 57 2.0 10.0 0.00 0.00 0.00 53 1012.4
20260506110012 71 98 4.0 9.0 0.00 0.00 0.00 54 1012.4
20260506103017 70 97 6.0 9.0 0.00 0.00 0.00 58 1012.7
20260506101506 70 91 5.0 10.0 0.00 0.00 0.00 59 1012.7
20260506100012 69 103 3.0 7.0 0.00 0.00 0.00 62 1012.8
20260506094518 68 67 3.0 7.0 0.00 0.00 0.00 63 1012.9
20260506093022 68 74 2.0 7.0 0.00 0.00 0.00 62 1013.2
20260506091506 69 63 2.0 6.0 0.00 0.00 0.00 60 1013.1
20260506090007 68 69 2.0 4.0 0.00 0.00 0.00 64 1013.2
20260506073004 67 70 3.0 4.0 0.00 0.00 0.00 64 1013.0
20260506071503 66 49 2.0 6.0 0.00 0.00 0.00 70 1012.9
20260506061504 67 225 0.0 0.0 0.00 0.00 0.00 63 1013.7
20260506044504 63 339 1.0 3.0 0.00 0.00 0.00 71 1013.6
20260506043004 63 217 1.0 2.0 0.00 0.00 0.00 71 1013.3
20260506041505 63 206 3.0 5.0 0.00 0.00 0.00 70 1013.2
20260506040004 64 271 2.0 3.0 0.00 0.00 0.00 64 1013.1
20260506033004 64 215 1.0 3.0 0.00 0.00 0.00 67 1012.7
20260506031504 64 240 1.0 3.0 0.00 0.00 0.00 65 1012.6
20260506030008 63 249 2.0 5.0 0.00 0.00 0.00 66 1012.5
20260506021508 63 194 0.0 0.0 0.00 0.00 0.00 74 1012.4
20260506020008 63 119 0.0 2.0 0.00 0.00 0.00 72 1012.5
20260506014510 63 191 2.0 3.0 0.00 0.00 0.00 72 1012.6
20260506011511 64 237 0.0 4.0 0.00 0.00 0.00 75 1012.6
20260506004511 65 224 3.0 4.0 0.00 0.00 0.00 66 1012.6
20260506003013 66 183 0.0 6.0 0.00 0.00 0.00 60 1012.6
20260505234514 65 200 3.0 5.0 0.00 0.00 0.00 61 1013.2
20260505233016 63 177 3.0 5.0 0.00 0.00 0.00 70 1013.5
20260505224515 63 273 2.0 7.0 0.00 0.00 0.00 76 1013.8
20260505223014 64 244 6.0 8.0 0.00 0.00 0.00 75 1013.7
20260505221518 64 253 3.0 6.0 0.00 0.00 0.00 69 1013.6
20260505220023 64 275 1.0 4.0 0.00 0.00 0.00 71 1013.7
20260505213009 64 305 1.0 2.0 0.00 0.00 0.00 73 1013.9
20260505211509 63 67 0.0 3.0 0.00 0.00 0.00 73 1013.7
20260505210006 63 89 0.0 3.0 0.00 0.00 0.00 73 1014.0
20260505204513 63 101 1.0 3.0 0.00 0.00 0.00 70 1014.1
20260505203027 63 147 0.0 0.0 0.00 0.00 0.00 70 1014.5
20260505201503 63 136 0.0 0.0 0.00 0.00 0.00 73 1014.7
20260505200010 63 130 0.0 1.0 0.00 0.00 0.00 75 1014.8
20260505194509 63 153 0.0 2.0 0.00 0.00 0.00 77 1014.7
20260505193014 63 95 0.0 1.0 0.00 0.00 0.00 81 1014.5
20260505183017 64 90 1.0 3.0 0.00 0.00 0.00 82 1014.4
20260505180023 64 92 1.0 4.0 0.00 0.00 0.00 81 1014.4
20260505173008 64 88 6.0 10.0 0.00 0.00 0.00 80 1014.4
20260505171511 65 61 6.0 11.0 0.00 0.00 0.00 79 1014.4
20260505170019 65 98 5.0 12.0 0.00 0.00 0.00 79 1014.6